| time (UTC) | temp F | wind direction | speed MPH | gust MPH | rain 1hr in | rain 24hr in | rain mn in | humidity % | barometer mb |
| 20260831064116 | 82 | 324 | 0.0 | 1.0 | 0.00 | 0.00 | 0.00 | 54 | |
| 20260831063612 | 82 | 325 | 1.0 | 3.0 | 0.00 | 0.00 | 0.00 | 54 | |
| 20260831063106 | 82 | 332 | 2.0 | 2.0 | 0.00 | 0.00 | 0.00 | 54 | |
| 20260831062606 | 82 | 343 | 3.0 | 3.0 | 0.00 | 0.00 | 0.00 | 54 | |
| 20260831062101 | 82 | 325 | 0.0 | 3.0 | 0.00 | 0.00 | 0.00 | 54 | |
| 20260831061559 | 82 | 332 | 0.0 | 0.0 | 0.00 | 0.00 | 0.00 | 53 | |
| 20260831061055 | 82 | 330 | 1.0 | 3.0 | 0.00 | 0.00 | 0.00 | 53 | |
| 20260831060551 | 83 | 339 | 2.0 | 2.0 | 0.00 | 0.00 | 0.00 | 53 | |
| 20260831060045 | 83 | 319 | 0.0 | 2.0 | 0.00 | 0.00 | 0.00 | 53 | |
| 20260831055539 | 83 | 332 | 1.0 | 5.0 | 0.00 | 0.00 | 0.00 | 52 | |
| 20260831055035 | 83 | 326 | 2.0 | 2.0 | 0.00 | 0.00 | 0.00 | 52 | |
| 20260831054535 | 83 | 326 | 0.0 | 1.0 | 0.00 | 0.00 | 0.00 | 53 | |
| 20260831054034 | 83 | 324 | 0.0 | 2.0 | 0.00 | 0.00 | 0.00 | 52 | |
| 20260831053532 | 84 | 334 | 1.0 | 5.0 | 0.00 | 0.00 | 0.00 | 51 | |
| 20260831053028 | 84 | 334 | 1.0 | 3.0 | 0.00 | 0.00 | 0.00 | 52 | |
| 20260831052526 | 84 | 318 | 1.0 | 1.0 | 0.00 | 0.00 | 0.00 | 52 | |
| 20260831052021 | 84 | 349 | 2.0 | 2.0 | 0.00 | 0.00 | 0.00 | 51 | |
| 20260831051518 | 84 | 29 | 1.0 | 3.0 | 0.00 | 0.00 | 0.00 | 51 | |
| 20260831051013 | 84 | 328 | 1.0 | 3.0 | 0.00 | 0.00 | 0.00 | 51 | |
| 20260831050512 | 84 | 334 | 2.0 | 3.0 | 0.00 | 0.00 | 0.00 | 51 | |
| 20260831050011 | 84 | 352 | 2.0 | 3.0 | 0.00 | 0.00 | 0.00 | 51 | |
| 20260831045510 | 84 | 353 | 2.0 | 5.0 | 0.00 | 0.00 | 0.00 | 51 | |
| 20260831045006 | 84 | 325 | 0.0 | 5.0 | 0.00 | 0.00 | 0.00 | 51 | |
| 20260831044501 | 85 | 331 | 2.0 | 2.0 | 0.00 | 0.00 | 0.00 | 50 | |
| 20260831043956 | 85 | 333 | 1.0 | 2.0 | 0.00 | 0.00 | 0.00 | 51 | |
| 20260831043456 | 85 | 325 | 1.0 | 2.0 | 0.00 | 0.00 | 0.00 | 50 | |
| 20260831042951 | 85 | 13 | 4.0 | 5.0 | 0.00 | 0.00 | 0.00 | 50 | |
| 20260831042451 | 85 | 335 | 3.0 | 5.0 | 0.00 | 0.00 | 0.00 | 50 | |
| 20260831041950 | 85 | 329 | 1.0 | 2.0 | 0.00 | 0.00 | 0.00 | 51 | |
| 20260831041445 | 85 | 335 | 1.0 | 2.0 | 0.00 | 0.00 | 0.00 | 51 | |
| 20260831040940 | 85 | 325 | 1.0 | 3.0 | 0.00 | 0.00 | 0.00 | 51 | |
| 20260831040435 | 85 | 332 | 0.0 | 2.0 | 0.00 | 0.00 | 0.00 | 51 | |
| 20260831035932 | 85 | 339 | 3.0 | 5.0 | 0.00 | 0.00 | 0.00 | 51 | |
| 20260831035432 | 85 | 330 | 3.0 | 5.0 | 0.00 | 0.00 | 0.00 | 51 | |
| 20260831034927 | 85 | 325 | 1.0 | 3.0 | 0.00 | 0.00 | 0.00 | 52 | |
| 20260831034422 | 85 | 329 | 2.0 | 6.0 | 0.00 | 0.00 | 0.00 | 51 | |
| 20260831033917 | 85 | 328 | 1.0 | 3.0 | 0.00 | 0.00 | 0.00 | 52 | |
| 20260831033413 | 85 | 338 | 1.0 | 2.0 | 0.00 | 0.00 | 0.00 | 52 | |
| 20260831032908 | 85 | 341 | 1.0 | 2.0 | 0.00 | 0.00 | 0.00 | 52 | |
| 20260831032402 | 85 | 324 | 1.0 | 2.0 | 0.00 | 0.00 | 0.00 | 52 | |
| 20260831031857 | 85 | 328 | 1.0 | 3.0 | 0.00 | 0.00 | 0.00 | 51 | |
| 20260831031356 | 86 | 334 | 1.0 | 2.0 | 0.00 | 0.00 | 0.00 | 51 | |
| 20260831030851 | 86 | 326 | 1.0 | 2.0 | 0.00 | 0.00 | 0.00 | 51 | |
| 20260831030350 | 86 | 335 | 3.0 | 3.0 | 0.00 | 0.00 | 0.00 | 50 | |
| 20260831025843 | 86 | 325 | 1.0 | 1.0 | 0.00 | 0.00 | 0.00 | 51 | |
| 20260831025343 | 86 | 323 | 2.0 | 3.0 | 0.00 | 0.00 | 0.00 | 51 | |
| 20260831024839 | 86 | 326 | 2.0 | 3.0 | 0.00 | 0.00 | 0.00 | 51 | |
| 20260831024338 | 86 | 322 | 0.0 | 2.0 | 0.00 | 0.00 | 0.00 | 51 | |
| 20260831023838 | 86 | 324 | 2.0 | 3.0 | 0.00 | 0.00 | 0.00 | 50 | |
| 20260831023336 | 87 | 342 | 0.0 | 1.0 | 0.00 | 0.00 | 0.00 | 50 | |
| 20260831022832 | 87 | 328 | 0.0 | 1.0 | 0.00 | 0.00 | 0.00 | 50 | |
| 20260831022331 | 87 | 329 | 0.0 | 2.0 | 0.00 | 0.00 | 0.00 | 50 | |
| 20260831021825 | 87 | 322 | 2.0 | 3.0 | 0.00 | 0.00 | 0.00 | 50 | |
| 20260831021325 | 87 | 326 | 1.0 | 2.0 | 0.00 | 0.00 | 0.00 | 49 | |
| 20260831020821 | 87 | 339 | 1.0 | 3.0 | 0.00 | 0.00 | 0.00 | 49 | |
| 20260831020321 | 87 | 344 | 4.0 | 6.0 | 0.00 | 0.00 | 0.00 | 49 | |
| 20260831015816 | 87 | 326 | 0.0 | 3.0 | 0.00 | 0.00 | 0.00 | 49 | |
| 20260831015312 | 87 | 325 | 0.0 | 0.0 | 0.00 | 0.00 | 0.00 | 49 | |
| 20260831014811 | 87 | 330 | 0.0 | 1.0 | 0.00 | 0.00 | 0.00 | 48 | |
| 20260831014306 | 88 | 325 | 1.0 | 2.0 | 0.00 | 0.00 | 0.00 | 48 | |
| 20260831013803 | 88 | 328 | 0.0 | 0.0 | 0.00 | 0.00 | 0.00 | 48 | |
| 20260831013302 | 88 | 329 | 0.0 | 1.0 | 0.00 | 0.00 | 0.00 | 47 | |
| 20260831012757 | 89 | 324 | 0.0 | 0.0 | 0.00 | 0.00 | 0.00 | 47 | |
| 20260831012253 | 89 | 329 | 0.0 | 0.0 | 0.00 | 0.00 | 0.00 | 46 | |
| 20260831011751 | 89 | 327 | 0.0 | 1.0 | 0.00 | 0.00 | 0.00 | 46 | |
| 20260831011247 | 89 | 329 | 1.0 | 2.0 | 0.00 | 0.00 | 0.00 | 46 | |
| 20260831010743 | 89 | 328 | 0.0 | 1.0 | 0.00 | 0.00 | 0.00 | 46 | |
| 20260831010237 | 90 | 325 | 0.0 | 0.0 | 0.00 | 0.00 | 0.00 | 45 | |
| 20260831005733 | 90 | 325 | 0.0 | 0.0 | 0.00 | 0.00 | 0.00 | 45 | |
| 20260831005228 | 91 | 334 | 0.0 | 0.0 | 0.00 | 0.00 | 0.00 | 44 | |
| 20260831004723 | 91 | 330 | 0.0 | 0.0 | 0.00 | 0.00 | 0.00 | 43 | |
| 20260831004219 | 92 | 326 | 1.0 | 3.0 | 0.00 | 0.00 | 0.00 | 42 | |
| 20260831003715 | 92 | 325 | 0.0 | 2.0 | 0.00 | 0.00 | 0.00 | 42 | |
| 20260831003211 | 93 | 331 | 1.0 | 2.0 | 0.00 | 0.00 | 0.00 | 42 | |
| 20260831002710 | 93 | 330 | 1.0 | 2.0 | 0.00 | 0.00 | 0.00 | 42 | |
| 20260831002204 | 93 | 326 | 0.0 | 0.0 | 0.00 | 0.00 | 0.00 | 42 | |
| 20260831001700 | 94 | 325 | 2.0 | 3.0 | 0.00 | 0.00 | 0.00 | 42 | |
| 20260831001155 | 94 | 335 | 1.0 | 2.0 | 0.00 | 0.00 | 0.00 | 42 | |
| 20260831000651 | 94 | 323 | 0.0 | 1.0 | 0.00 | 0.00 | 0.00 | 42 | |
| 20260831000146 | 94 | 334 | 0.0 | 0.0 | 0.00 | 0.00 | 0.00 | 42 | |
| 20260830235645 | 94 | 332 | 0.0 | 1.0 | 0.00 | 0.00 | 0.00 | 41 | |
| 20260830235140 | 95 | 344 | 1.0 | 2.0 | 0.00 | 0.00 | 0.00 | 40 | |
| 20260830234635 | 95 | 322 | 1.0 | 1.0 | 0.00 | 0.00 | 0.00 | 40 | |
| 20260830234131 | 95 | 332 | 1.0 | 2.0 | 0.00 | 0.00 | 0.00 | 40 | |
| 20260830233626 | 95 | 321 | 0.0 | 1.0 | 0.00 | 0.00 | 0.00 | 41 | |
| 20260830233122 | 96 | 325 | 0.0 | 2.0 | 0.00 | 0.00 | 0.00 | 40 | |
| 20260830232618 | 96 | 334 | 0.0 | 3.0 | 0.00 | 0.00 | 0.00 | 40 | |
| 20260830232114 | 96 | 337 | 2.0 | 6.0 | 0.00 | 0.00 | 0.00 | 39 | |
| 20260830231609 | 96 | 331 | 0.0 | 2.0 | 0.00 | 0.00 | 0.00 | 38 | |
| 20260830231108 | 96 | 336 | 0.0 | 6.0 | 0.00 | 0.00 | 0.00 | 37 | |
| 20260830230604 | 96 | 329 | 1.0 | 3.0 | 0.00 | 0.00 | 0.00 | 38 | |
| 20260830230058 | 96 | 346 | 3.0 | 6.0 | 0.00 | 0.00 | 0.00 | 37 | |
| 20260830225553 | 97 | 16 | 5.0 | 8.0 | 0.00 | 0.00 | 0.00 | 37 | |
| 20260830225048 | 97 | 356 | 1.0 | 7.0 | 0.00 | 0.00 | 0.00 | 38 | |
| 20260830224546 | 97 | 328 | 0.0 | 3.0 | 0.00 | 0.00 | 0.00 | 38 | |
| 20260830224043 | 97 | 319 | 3.0 | 7.0 | 0.00 | 0.00 | 0.00 | 38 | |
| 20260830223540 | 97 | 311 | 3.0 | 7.0 | 0.00 | 0.00 | 0.00 | 38 | |
| 20260830223039 | 97 | 349 | 1.0 | 5.0 | 0.00 | 0.00 | 0.00 | 39 | |
| 20260830222534 | 97 | 44 | 3.0 | 6.0 | 0.00 | 0.00 | 0.00 | 38 | |
| 20260830222030 | 97 | 320 | 1.0 | 6.0 | 0.00 | 0.00 | 0.00 | 39 | |
| 20260830221526 | 97 | 345 | 0.0 | 1.0 | 0.00 | 0.00 | 0.00 | 40 | |
| 20260830221022 | 97 | 333 | 4.0 | 7.0 | 0.00 | 0.00 | 0.00 | 37 | |
| 20260830220521 | 97 | 15 | 3.0 | 3.0 | 0.00 | 0.00 | 0.00 | 38 | |
| 20260830220020 | 98 | 326 | 4.0 | 6.0 | 0.00 | 0.00 | 0.00 | 38 | |
| 20260830215514 | 97 | 325 | 0.0 | 1.0 | 0.00 | 0.00 | 0.00 | 38 | |
| 20260830215009 | 97 | 353 | 3.0 | 5.0 | 0.00 | 0.00 | 0.00 | 38 | |
| 20260830214504 | 97 | 324 | 3.0 | 6.0 | 0.00 | 0.00 | 0.00 | 38 | |
| 20260830213958 | 97 | 352 | 2.0 | 5.0 | 0.00 | 0.00 | 0.00 | 39 | |
| 20260830213453 | 97 | 331 | 3.0 | 6.0 | 0.00 | 0.00 | 0.00 | 39 | |
| 20260830212948 | 97 | 351 | 4.0 | 6.0 | 0.00 | 0.00 | 0.00 | 39 | |
| 20260830212444 | 98 | 21 | 7.0 | 11.0 | 0.00 | 0.00 | 0.00 | 39 | |
| 20260830211943 | 97 | 349 | 1.0 | 3.0 | 0.00 | 0.00 | 0.00 | 40 | |
| 20260830211438 | 97 | 349 | 4.0 | 6.0 | 0.00 | 0.00 | 0.00 | 40 | |
| 20260830210934 | 98 | 351 | 2.0 | 5.0 | 0.00 | 0.00 | 0.00 | 40 | |
| 20260830210434 | 98 | 344 | 0.0 | 1.0 | 0.00 | 0.00 | 0.00 | 39 | |
| 20260830205931 | 97 | 322 | 0.0 | 1.0 | 0.00 | 0.00 | 0.00 | 41 | |
| 20260830205431 | 97 | 346 | 0.0 | 2.0 | 0.00 | 0.00 | 0.00 | 40 | |
| 20260830204926 | 97 | 325 | 2.0 | 9.0 | 0.00 | 0.00 | 0.00 | 40 | |
| 20260830204425 | 97 | 319 | 0.0 | 1.0 | 0.00 | 0.00 | 0.00 | 41 | |
| 20260830203920 | 97 | 323 | 2.0 | 3.0 | 0.00 | 0.00 | 0.00 | 41 | |
| 20260830203416 | 97 | 341 | 1.0 | 2.0 | 0.00 | 0.00 | 0.00 | 41 | |
| 20260830202915 | 96 | 4 | 2.0 | 5.0 | 0.00 | 0.00 | 0.00 | 41 | |
| 20260830202410 | 96 | 342 | 0.0 | 3.0 | 0.00 | 0.00 | 0.00 | 41 | |
| 20260830201901 | 96 | 358 | 4.0 | 7.0 | 0.00 | 0.00 | 0.00 | 40 | |
| 20260830201400 | 96 | 332 | 3.0 | 5.0 | 0.00 | 0.00 | 0.00 | 42 | |
| 20260830200856 | 96 | 1 | 2.0 | 5.0 | 0.00 | 0.00 | 0.00 | 42 | |
| 20260830200355 | 97 | 358 | 3.0 | 3.0 | 0.00 | 0.00 | 0.00 | 42 | |
| 20260830195850 | 96 | 329 | 4.0 | 7.0 | 0.00 | 0.00 | 0.00 | 42 | |
| 20260830195344 | 96 | 13 | 2.0 | 5.0 | 0.00 | 0.00 | 0.00 | 43 | |
| 20260830194843 | 96 | 59 | 3.0 | 6.0 | 0.00 | 0.00 | 0.00 | 42 | |
| 20260830194336 | 96 | 348 | 3.0 | 6.0 | 0.00 | 0.00 | 0.00 | 42 | |
| 20260830193831 | 96 | 337 | 1.0 | 2.0 | 0.00 | 0.00 | 0.00 | 44 | |
| 20260830193325 | 96 | 3 | 1.0 | 7.0 | 0.00 | 0.00 | 0.00 | 43 | |
| 20260830192822 | 96 | 322 | 2.0 | 6.0 | 0.00 | 0.00 | 0.00 | 42 | |
| 20260830192321 | 96 | 3 | 3.0 | 3.0 | 0.00 | 0.00 | 0.00 | 44 | |
| 20260830191817 | 95 | 309 | 1.0 | 5.0 | 0.00 | 0.00 | 0.00 | 44 | |
| 20260830191316 | 95 | 327 | 2.0 | 5.0 | 0.00 | 0.00 | 0.00 | 42 | |
| 20260830190813 | 95 | 355 | 1.0 | 6.0 | 0.00 | 0.00 | 0.00 | 43 | |
| 20260830190312 | 95 | 255 | 1.0 | 2.0 | 0.00 | 0.00 | 0.00 | 44 | |
| 20260830185811 | 95 | 322 | 1.0 | 5.0 | 0.00 | 0.00 | 0.00 | 45 | |
| 20260830185306 | 94 | 340 | 1.0 | 5.0 | 0.00 | 0.00 | 0.00 | 45 | |
| 20260830184801 | 94 | 330 | 0.0 | 2.0 | 0.00 | 0.00 | 0.00 | 45 | |
| 20260830184300 | 94 | 343 | 1.0 | 5.0 | 0.00 | 0.00 | 0.00 | 46 | |
| 20260830183755 | 94 | 322 | 2.0 | 3.0 | 0.00 | 0.00 | 0.00 | 45 | |
| 20260830183250 | 93 | 341 | 2.0 | 13.0 | 0.00 | 0.00 | 0.00 | 46 | |
| 20260830182745 | 93 | 334 | 1.0 | 3.0 | 0.00 | 0.00 | 0.00 | 46 | |
| 20260830182241 | 93 | 356 | 2.0 | 9.0 | 0.00 | 0.00 | 0.00 | 46 | |
| 20260830181737 | 93 | 26 | 2.0 | 5.0 | 0.00 | 0.00 | 0.00 | 47 | |
| 20260830181232 | 93 | 310 | 3.0 | 5.0 | 0.00 | 0.00 | 0.00 | 47 | |
| 20260830180731 | 92 | 307 | 2.0 | 3.0 | 0.00 | 0.00 | 0.00 | 49 | |
| 20260830180226 | 92 | 335 | 3.0 | 6.0 | 0.00 | 0.00 | 0.00 | 48 | |
| 20260830175720 | 92 | 320 | 1.0 | 3.0 | 0.00 | 0.00 | 0.00 | 48 | |
| 20260830175215 | 91 | 353 | 5.0 | 7.0 | 0.00 | 0.00 | 0.00 | 48 | |
| 20260830174710 | 91 | 10 | 4.0 | 6.0 | 0.00 | 0.00 | 0.00 | 48 | |
| 20260830174206 | 91 | 335 | 5.0 | 8.0 | 0.00 | 0.00 | 0.00 | 48 | |
| 20260830173705 | 91 | 23 | 2.0 | 5.0 | 0.00 | 0.00 | 0.00 | 48 | |
| 20260830173200 | 91 | 353 | 3.0 | 5.0 | 0.00 | 0.00 | 0.00 | 49 | |
| 20260830172657 | 91 | 312 | 0.0 | 2.0 | 0.00 | 0.00 | 0.00 | 50 | |
| 20260830172153 | 91 | 71 | 3.0 | 5.0 | 0.00 | 0.00 | 0.00 | 48 | |
| 20260830171648 | 91 | 321 | 0.0 | 6.0 | 0.00 | 0.00 | 0.00 | 50 | |
| 20260830171143 | 90 | 344 | 0.0 | 3.0 | 0.00 | 0.00 | 0.00 | 50 | |
| 20260830170638 | 90 | 325 | 0.0 | 2.0 | 0.00 | 0.00 | 0.00 | 51 | |
| 20260830170137 | 89 | 334 | 1.0 | 5.0 | 0.00 | 0.00 | 0.00 | 52 | |
| 20260830165632 | 89 | 318 | 3.0 | 6.0 | 0.00 | 0.00 | 0.00 | 51 | |
| 20260830165127 | 89 | 334 | 1.0 | 5.0 | 0.00 | 0.00 | 0.00 | 52 | |
| 20260830164624 | 89 | 333 | 0.0 | 5.0 | 0.00 | 0.00 | 0.00 | 53 | |
| 20260830164119 | 88 | 280 | 1.0 | 3.0 | 0.00 | 0.00 | 0.00 | 55 | |
| 20260830163616 | 88 | 344 | 1.0 | 5.0 | 0.00 | 0.00 | 0.00 | 54 | |
| 20260830163116 | 87 | 342 | 4.0 | 5.0 | 0.00 | 0.00 | 0.00 | 54 | |
| 20260830162611 | 86 | 326 | 0.0 | 2.0 | 0.00 | 0.00 | 0.00 | 55 | |
| 20260830162106 | 86 | 338 | 2.0 | 5.0 | 0.00 | 0.00 | 0.00 | 56 | |
| 20260830161601 | 86 | 331 | 2.0 | 3.0 | 0.00 | 0.00 | 0.00 | 55 | |
| 20260830161055 | 86 | 325 | 2.0 | 6.0 | 0.00 | 0.00 | 0.00 | 55 | |
| 20260830160551 | 85 | 347 | 1.0 | 3.0 | 0.00 | 0.00 | 0.00 | 56 | |
| 20260830160047 | 85 | 17 | 3.0 | 6.0 | 0.00 | 0.00 | 0.00 | 55 | |
| 20260830155543 | 84 | 354 | 2.0 | 6.0 | 0.00 | 0.00 | 0.00 | 56 | |
| 20260830155038 | 84 | 320 | 4.0 | 8.0 | 0.00 | 0.00 | 0.00 | 56 | |
| 20260830154533 | 83 | 333 | 5.0 | 7.0 | 0.00 | 0.00 | 0.00 | 57 | |
| 20260830154030 | 83 | 341 | 3.0 | 5.0 | 0.00 | 0.00 | 0.00 | 58 | |
| 20260830153526 | 82 | 351 | 2.0 | 3.0 | 0.00 | 0.00 | 0.00 | 59 | |
| 20260830153025 | 82 | 324 | 2.0 | 3.0 | 0.00 | 0.00 | 0.00 | 59 | |
| 20260830152519 | 82 | 333 | 1.0 | 5.0 | 0.00 | 0.00 | 0.00 | 59 | |
| 20260830152018 | 82 | 1 | 3.0 | 3.0 | 0.00 | 0.00 | 0.00 | 58 | |
| 20260830151513 | 82 | 357 | 3.0 | 6.0 | 0.00 | 0.00 | 0.00 | 59 | |
| 20260830151008 | 81 | 326 | 2.0 | 3.0 | 0.00 | 0.00 | 0.00 | 60 | |
| 20260830150508 | 81 | 329 | 1.0 | 3.0 | 0.00 | 0.00 | 0.00 | 60 | |
| 20260830150002 | 80 | 328 | 3.0 | 3.0 | 0.00 | 0.00 | 0.00 | 60 | |
| 20260830145502 | 80 | 349 | 2.0 | 3.0 | 0.00 | 0.00 | 0.00 | 62 | |
| 20260830144957 | 80 | 324 | 0.0 | 3.0 | 0.00 | 0.00 | 0.00 | 62 | |
| 20260830144453 | 80 | 342 | 1.0 | 3.0 | 0.00 | 0.00 | 0.00 | 62 | |
| 20260830143948 | 80 | 329 | 1.0 | 3.0 | 0.00 | 0.00 | 0.00 | 63 | |
| 20260830143444 | 80 | 327 | 1.0 | 5.0 | 0.00 | 0.00 | 0.00 | 62 | |
| 20260830142942 | 80 | 328 | 1.0 | 3.0 | 0.00 | 0.00 | 0.00 | 62 | |
| 20260830142438 | 80 | 2 | 3.0 | 5.0 | 0.00 | 0.00 | 0.00 | 62 | |
| 20260830141932 | 80 | 268 | 1.0 | 3.0 | 0.00 | 0.00 | 0.00 | 64 | |
| 20260830141428 | 80 | 305 | 3.0 | 5.0 | 0.00 | 0.00 | 0.00 | 62 | |
| 20260830140923 | 80 | 328 | 0.0 | 8.0 | 0.00 | 0.00 | 0.00 | 62 | |
| 20260830140418 | 79 | 348 | 2.0 | 3.0 | 0.00 | 0.00 | 0.00 | 62 | |
| 20260830135917 | 79 | 328 | 1.0 | 6.0 | 0.00 | 0.00 | 0.00 | 62 | |
| 20260830135413 | 78 | 328 | 2.0 | 5.0 | 0.00 | 0.00 | 0.00 | 62 | |
| 20260830134908 | 78 | 331 | 1.0 | 3.0 | 0.00 | 0.00 | 0.00 | 63 | |
| 20260830134404 | 78 | 332 | 1.0 | 3.0 | 0.00 | 0.00 | 0.00 | 63 | |
| 20260830133859 | 78 | 329 | 2.0 | 6.0 | 0.00 | 0.00 | 0.00 | 62 | |
| 20260830133354 | 77 | 341 | 1.0 | 3.0 | 0.00 | 0.00 | 0.00 | 64 | |
| 20260830132849 | 77 | 320 | 1.0 | 1.0 | 0.00 | 0.00 | 0.00 | 64 | |
| 20260830132346 | 77 | 329 | 5.0 | 7.0 | 0.00 | 0.00 | 0.00 | 64 | |
| 20260830131845 | 76 | 304 | 2.0 | 2.0 | 0.00 | 0.00 | 0.00 | 64 | |
| 20260830131345 | 76 | 325 | 1.0 | 2.0 | 0.00 | 0.00 | 0.00 | 65 | |
| 20260830130839 | 76 | 28 | 1.0 | 5.0 | 0.00 | 0.00 | 0.00 | 65 | |
| 20260830130335 | 76 | 331 | 2.0 | 5.0 | 0.00 | 0.00 | 0.00 | 64 | |
| 20260830125834 | 75 | 323 | 0.0 | 2.0 | 0.00 | 0.00 | 0.00 | 65 | |
| 20260830125330 | 76 | 321 | 2.0 | 2.0 | 0.00 | 0.00 | 0.00 | 65 | |
| 20260830124827 | 76 | 13 | 3.0 | 3.0 | 0.00 | 0.00 | 0.00 | 64 | |
| 20260830124322 | 75 | 311 | 1.0 | 3.0 | 0.00 | 0.00 | 0.00 | 64 | |
| 20260830123819 | 75 | 344 | 1.0 | 2.0 | 0.00 | 0.00 | 0.00 | 65 | |
| 20260830123315 | 75 | 336 | 1.0 | 5.0 | 0.00 | 0.00 | 0.00 | 65 | |
| 20260830122813 | 75 | 325 | 1.0 | 2.0 | 0.00 | 0.00 | 0.00 | 65 | |
| 20260830122308 | 75 | 327 | 2.0 | 2.0 | 0.00 | 0.00 | 0.00 | 65 | |
| 20260830121803 | 75 | 331 | 1.0 | 2.0 | 0.00 | 0.00 | 0.00 | 65 | |
| 20260830121302 | 75 | 323 | 1.0 | 3.0 | 0.00 | 0.00 | 0.00 | 65 | |
| 20260830120757 | 75 | 320 | 2.0 | 3.0 | 0.00 | 0.00 | 0.00 | 64 | |
| 20260830120253 | 75 | 328 | 1.0 | 2.0 | 0.00 | 0.00 | 0.00 | 64 | |
| 20260830115750 | 76 | 0 | 1.0 | 2.0 | 0.00 | 0.00 | 0.00 | 64 | |
| 20260830115245 | 76 | 2 | 2.0 | 5.0 | 0.00 | 0.00 | 0.00 | 63 | |
| 20260830114741 | 76 | 339 | 2.0 | 3.0 | 0.00 | 0.00 | 0.00 | 63 | |
| 20260830114236 | 76 | 320 | 2.0 | 3.0 | 0.00 | 0.00 | 0.00 | 63 | |
| 20260830113732 | 76 | 333 | 1.0 | 3.0 | 0.00 | 0.00 | 0.00 | 63 | |
| 20260830113232 | 76 | 348 | 1.0 | 2.0 | 0.00 | 0.00 | 0.00 | 63 | |
| 20260830112728 | 76 | 337 | 2.0 | 5.0 | 0.00 | 0.00 | 0.00 | 62 | |
| 20260830112224 | 76 | 334 | 0.0 | 5.0 | 0.00 | 0.00 | 0.00 | 62 | |
| 20260830111719 | 76 | 335 | 2.0 | 5.0 | 0.00 | 0.00 | 0.00 | 62 | |
| 20260830111215 | 77 | 354 | 2.0 | 3.0 | 0.00 | 0.00 | 0.00 | 62 | |
| 20260830110709 | 77 | 88 | 3.0 | 7.0 | 0.00 | 0.00 | 0.00 | 61 | |
| 20260830110206 | 77 | 325 | 0.0 | 6.0 | 0.00 | 0.00 | 0.00 | 61 | |
| 20260830105704 | 77 | 316 | 0.0 | 2.0 | 0.00 | 0.00 | 0.00 | 61 | |
| 20260830105201 | 77 | 336 | 0.0 | 3.0 | 0.00 | 0.00 | 0.00 | 62 | |
| 20260830104657 | 77 | 338 | 1.0 | 2.0 | 0.00 | 0.00 | 0.00 | 61 | |
| 20260830104154 | 77 | 346 | 1.0 | 2.0 | 0.00 | 0.00 | 0.00 | 61 | |
| 20260830103652 | 77 | 330 | 3.0 | 3.0 | 0.00 | 0.00 | 0.00 | 61 | |
| 20260830103148 | 77 | 325 | 2.0 | 3.0 | 0.00 | 0.00 | 0.00 | 61 | |
| 20260830102647 | 77 | 46 | 2.0 | 6.0 | 0.00 | 0.00 | 0.00 | 61 | |
| 20260830102143 | 77 | 345 | 3.0 | 3.0 | 0.00 | 0.00 | 0.00 | 60 | |
| 20260830101638 | 77 | 334 | 3.0 | 3.0 | 0.00 | 0.00 | 0.00 | 61 | |
| 20260830101133 | 77 | 341 | 0.0 | 5.0 | 0.00 | 0.00 | 0.00 | 61 | |
| 20260830100633 | 77 | 327 | 3.0 | 5.0 | 0.00 | 0.00 | 0.00 | 60 | |
| 20260830100127 | 77 | 338 | 2.0 | 7.0 | 0.00 | 0.00 | 0.00 | 60 | |
| 20260830095626 | 77 | 330 | 2.0 | 5.0 | 0.00 | 0.00 | 0.00 | 60 | |
| 20260830095123 | 77 | 326 | 1.0 | 5.0 | 0.00 | 0.00 | 0.00 | 60 | |
| 20260830094619 | 77 | 314 | 2.0 | 3.0 | 0.00 | 0.00 | 0.00 | 60 | |
| 20260830094114 | 77 | 346 | 2.0 | 3.0 | 0.00 | 0.00 | 0.00 | 60 | |
| 20260830093609 | 77 | 331 | 0.0 | 6.0 | 0.00 | 0.00 | 0.00 | 60 | |
| 20260830093106 | 77 | 326 | 3.0 | 3.0 | 0.00 | 0.00 | 0.00 | 60 | |
| 20260830092600 | 77 | 327 | 2.0 | 6.0 | 0.00 | 0.00 | 0.00 | 60 | |
| 20260830092057 | 77 | 285 | 3.0 | 6.0 | 0.00 | 0.00 | 0.00 | 61 | |
| 20260830091552 | 77 | 358 | 6.0 | 7.0 | 0.00 | 0.00 | 0.00 | 60 | |
| 20260830091051 | 77 | 326 | 2.0 | 5.0 | 0.00 | 0.00 | 0.00 | 60 | |
| 20260830090546 | 77 | 325 | 1.0 | 3.0 | 0.00 | 0.00 | 0.00 | 61 | |
| 20260830090042 | 77 | 356 | 1.0 | 6.0 | 0.00 | 0.00 | 0.00 | 61 | |
| 20260830085541 | 77 | 336 | 2.0 | 2.0 | 0.00 | 0.00 | 0.00 | 60 | |
| 20260830085037 | 78 | 343 | 3.0 | 5.0 | 0.00 | 0.00 | 0.00 | 60 | |
| 20260830084532 | 78 | 348 | 2.0 | 2.0 | 0.00 | 0.00 | 0.00 | 60 | |
| 20260830084027 | 78 | 346 | 3.0 | 5.0 | 0.00 | 0.00 | 0.00 | 60 | |
| 20260830083522 | 78 | 339 | 2.0 | 5.0 | 0.00 | 0.00 | 0.00 | 60 | |
| 20260830083022 | 78 | 352 | 3.0 | 5.0 | 0.00 | 0.00 | 0.00 | 59 | |
| 20260830082518 | 78 | 329 | 0.0 | 5.0 | 0.00 | 0.00 | 0.00 | 59 | |
| 20260830082013 | 78 | 336 | 2.0 | 7.0 | 0.00 | 0.00 | 0.00 | 59 | |
| 20260830081509 | 78 | 324 | 0.0 | 5.0 | 0.00 | 0.00 | 0.00 | 59 | |
| 20260830081008 | 78 | 326 | 3.0 | 5.0 | 0.00 | 0.00 | 0.00 | 58 | |
| 20260830080503 | 78 | 324 | 0.0 | 2.0 | 0.00 | 0.00 | 0.00 | 59 | |
| 20260830080003 | 78 | 17 | 2.0 | 3.0 | 0.00 | 0.00 | 0.00 | 58 | |
| 20260830075458 | 78 | 8 | 3.0 | 6.0 | 0.00 | 0.00 | 0.00 | 59 | |
| 20260830074953 | 78 | 340 | 3.0 | 5.0 | 0.00 | 0.00 | 0.00 | 59 | |
| 20260830074449 | 78 | 340 | 1.0 | 6.0 | 0.00 | 0.00 | 0.00 | 59 | |
| 20260830073944 | 78 | 319 | 4.0 | 7.0 | 0.00 | 0.00 | 0.00 | 59 | |
| 20260830073440 | 78 | 344 | 2.0 | 5.0 | 0.00 | 0.00 | 0.00 | 59 | |
| 20260830072935 | 78 | 2 | 3.0 | 3.0 | 0.00 | 0.00 | 0.00 | 59 | |
| 20260830072431 | 78 | 349 | 2.0 | 5.0 | 0.00 | 0.00 | 0.00 | 59 | |
| 20260830071930 | 78 | 340 | 2.0 | 3.0 | 0.00 | 0.00 | 0.00 | 59 | |
| 20260830071426 | 78 | 333 | 1.0 | 2.0 | 0.00 | 0.00 | 0.00 | 59 | |
| 20260830070924 | 78 | 0 | 3.0 | 5.0 | 0.00 | 0.00 | 0.00 | 59 | |
| 20260830070419 | 78 | 329 | 1.0 | 2.0 | 0.00 | 0.00 | 0.00 | 60 | |
| 20260830065918 | 78 | 350 | 2.0 | 2.0 | 0.00 | 0.00 | 0.00 | 60 | |
| 20260830065413 | 78 | 326 | 1.0 | 1.0 | 0.00 | 0.00 | 0.00 | 60 | |
| 20260830064910 | 78 | 339 | 2.0 | 3.0 | 0.00 | 0.00 | 0.00 | 59 | |
| 20260830064407 | 78 | 329 | 1.0 | 5.0 | 0.00 | 0.00 | 0.00 | 60 |